Time,TemperatureF,DewpointF,PressureIn,WindDirection,WindDirectionDegrees,WindSpeedMPH,WindSpeedGustMPH,Humidity,HourlyPrecipIn,Conditions,Clouds,dailyrainin,SoftwareType,DateUTC
2013-05-07 00:01:00,55.8,54.1,29.80,WNW,290,0.0,3.0,94,0.00,,---,0.04,VWS V14.01,2013-05-07 05:01:00,
2013-05-07 00:06:00,55.7,54.0,29.80,WNW,290,0.0,0.0,94,0.00,,---,0.00,VWS V14.01,2013-05-07 05:06:00,
2013-05-07 00:11:00,55.5,53.8,29.80,WNW,290,0.0,0.0,94,0.00,,---,0.00,VWS V14.01,2013-05-07 05:11:00,
2013-05-07 00:16:00,55.3,53.6,29.81,WNW,290,0.0,0.0,94,0.00,,---,0.00,VWS V14.01,2013-05-07 05:16:00,
2013-05-07 00:21:00,55.3,53.6,29.81,WNW,290,0.0,0.0,94,0.00,,---,0.00,VWS V14.01,2013-05-07 05:21:00,
2013-05-07 00:26:00,55.1,53.4,29.81,WNW,290,0.0,0.0,94,0.00,,---,0.00,VWS V14.01,2013-05-07 05:26:00,
2013-05-07 00:31:00,54.9,53.2,29.80,WNW,290,0.0,0.0,94,0.00,,---,0.00,VWS V14.01,2013-05-07 05:31:00,
2013-05-07 00:36:00,54.7,53.0,29.80,WNW,290,0.0,0.0,94,0.00,,---,0.00,VWS V14.01,2013-05-07 05:36:00,
2013-05-07 00:41:00,54.5,52.8,29.80,WNW,290,0.0,0.0,94,0.00,,---,0.00,VWS V14.01,2013-05-07 05:41:00,
2013-05-07 00:46:00,54.2,52.5,29.80,WNW,290,0.0,0.0,94,0.00,,---,0.00,VWS V14.01,2013-05-07 05:46:00,
2013-05-07 00:51:00,53.8,52.1,29.80,WNW,290,0.0,0.0,94,0.00,,---,0.00,VWS V14.01,2013-05-07 05:51:00,
2013-05-07 00:56:00,53.7,52.0,29.80,WNW,290,0.0,0.0,94,0.00,,---,0.00,VWS V14.01,2013-05-07 05:56:00,
2013-05-07 01:01:00,53.7,52.3,29.80,WNW,290,1.0,1.0,95,0.00,,---,0.00,VWS V14.01,2013-05-07 06:01:00,
2013-05-07 01:06:00,54.1,52.7,29.80,WNW,290,0.0,1.0,95,0.00,,---,0.00,VWS V14.01,2013-05-07 06:06:00,
2013-05-07 01:11:00,54.5,53.1,29.80,WNW,290,1.0,2.0,95,0.00,,---,0.00,VWS V14.01,2013-05-07 06:11:00,
2013-05-07 01:16:00,54.9,53.5,29.80,WNW,290,0.0,2.0,95,0.00,,---,0.00,VWS V14.01,2013-05-07 06:16:00,
2013-05-07 01:21:00,55.2,53.8,29.80,NNW,332,0.0,3.0,95,0.00,,---,0.00,VWS V14.01,2013-05-07 06:21:00,
2013-05-07 01:26:00,55.4,54.0,29.80,NNW,331,0.0,3.0,95,0.00,,---,0.00,VWS V14.01,2013-05-07 06:26:00,
2013-05-07 01:31:00,55.4,54.0,29.80,NNW,331,0.0,3.0,95,0.00,,---,0.00,VWS V14.01,2013-05-07 06:31:00,
2013-05-07 01:36:00,55.3,53.9,29.80,NNW,331,0.0,2.0,95,0.00,,---,0.00,VWS V14.01,2013-05-07 06:36:00,
2013-05-07 01:41:00,55.2,53.8,29.80,NNW,331,0.0,2.0,95,0.00,,---,0.00,VWS V14.01,2013-05-07 06:41:00,
2013-05-07 01:46:00,55.1,53.7,29.80,NNW,331,0.0,2.0,95,0.00,,---,0.00,VWS V14.01,2013-05-07 06:46:00,
2013-05-07 01:51:00,55.0,53.6,29.80,NNW,331,0.0,2.0,95,0.00,,---,0.00,VWS V14.01,2013-05-07 06:51:00,
2013-05-07 01:56:00,54.8,53.4,29.80,NNW,331,0.0,2.0,95,0.00,,---,0.00,VWS V14.01,2013-05-07 06:56:00,
2013-05-07 02:01:00,54.7,53.3,29.79,NNW,331,0.0,2.0,95,0.00,,---,0.00,VWS V14.01,2013-05-07 07:01:00,
2013-05-07 02:06:00,54.6,53.2,29.79,NNW,331,0.0,0.0,95,0.00,,---,0.00,VWS V14.01,2013-05-07 07:06:00,
2013-05-07 02:11:00,54.5,53.1,29.79,NNW,332,0.0,0.0,95,0.00,,---,0.00,VWS V14.01,2013-05-07 07:11:00,
2013-05-07 02:16:00,54.2,52.8,29.80,NNW,331,0.0,0.0,95,0.00,,---,0.00,VWS V14.01,2013-05-07 07:16:00,
2013-05-07 02:21:00,53.9,52.5,29.80,NNW,332,0.0,2.0,95,0.00,,---,0.00,VWS V14.01,2013-05-07 07:21:00,
2013-05-07 02:26:00,53.8,52.4,29.80,NNW,331,0.0,2.0,95,0.00,,---,0.00,VWS V14.01,2013-05-07 07:26:00,
2013-05-07 02:31:00,53.8,52.4,29.80,NNW,331,0.0,2.0,95,0.00,,---,0.00,VWS V14.01,2013-05-07 07:31:00,
2013-05-07 02:36:00,53.7,52.3,29.80,NNW,332,0.0,1.0,95,0.00,,---,0.00,VWS V14.01,2013-05-07 07:36:00,
2013-05-07 02:41:00,53.6,52.2,29.80,NNW,331,0.0,2.0,95,0.00,,---,0.00,VWS V14.01,2013-05-07 07:41:00,
2013-05-07 02:46:00,53.7,52.3,29.80,NW,312,0.0,2.0,95,0.00,,---,0.00,VWS V14.01,2013-05-07 07:46:00,
2013-05-07 02:51:00,53.8,52.4,29.80,WNW,302,0.0,3.0,95,0.00,,---,0.00,VWS V14.01,2013-05-07 07:51:00,
2013-05-07 02:56:00,53.9,52.5,29.80,WNW,302,0.0,3.0,95,0.00,,---,0.00,VWS V14.01,2013-05-07 07:56:00,
2013-05-07 03:01:00,54.0,52.6,29.80,WNW,302,0.0,3.0,95,0.00,,---,0.00,VWS V14.01,2013-05-07 08:01:00,
2013-05-07 03:06:00,54.0,52.6,29.80,WNW,302,0.0,1.0,95,0.00,,---,0.00,VWS V14.01,2013-05-07 08:06:00,
2013-05-07 03:11:00,53.8,52.4,29.80,WNW,302,0.0,2.0,95,0.00,,---,0.00,VWS V14.01,2013-05-07 08:11:00,
2013-05-07 03:16:00,53.7,52.3,29.80,WNW,302,0.0,2.0,95,0.00,,---,0.00,VWS V14.01,2013-05-07 08:16:00,
2013-05-07 03:21:00,53.5,52.1,29.80,WNW,302,0.0,2.0,95,0.00,,---,0.00,VWS V14.01,2013-05-07 08:21:00,
2013-05-07 03:26:00,53.3,51.9,29.80,WNW,302,0.0,2.0,95,0.00,,---,0.00,VWS V14.01,2013-05-07 08:26:00,
2013-05-07 03:31:00,53.3,51.9,29.80,WNW,302,0.0,2.0,95,0.00,,---,0.00,VWS V14.01,2013-05-07 08:31:00,
2013-05-07 03:36:00,53.2,51.8,29.80,WNW,302,0.0,0.0,95,0.00,,---,0.00,VWS V14.01,2013-05-07 08:36:00,
2013-05-07 03:41:00,53.1,51.7,29.80,WNW,302,0.0,0.0,95,0.00,,---,0.00,VWS V14.01,2013-05-07 08:41:00,
2013-05-07 03:46:00,53.1,51.7,29.80,WNW,302,0.0,1.0,95,0.00,,---,0.00,VWS V14.01,2013-05-07 08:46:00,
2013-05-07 03:51:00,53.1,51.7,29.80,WNW,302,0.0,1.0,95,0.00,,---,0.00,VWS V14.01,2013-05-07 08:51:00,
2013-05-07 03:56:00,53.1,51.7,29.80,WNW,302,0.0,1.0,95,0.00,,---,0.00,VWS V14.01,2013-05-07 08:56:00,
2013-05-07 04:01:00,53.1,51.7,29.80,WNW,302,0.0,1.0,95,0.01,,---,0.01,VWS V14.01,2013-05-07 09:01:00,
2013-05-07 04:06:00,53.2,51.8,29.80,WNW,302,0.0,0.0,95,0.01,,---,0.01,VWS V14.01,2013-05-07 09:06:00,
2013-05-07 04:11:00,53.2,51.8,29.80,WNW,302,0.0,0.0,95,0.01,,---,0.01,VWS V14.01,2013-05-07 09:11:00,
2013-05-07 04:16:00,53.1,51.7,29.79,WNW,302,0.0,0.0,95,0.01,,---,0.01,VWS V14.01,2013-05-07 09:16:00,
2013-05-07 04:21:00,53.0,51.6,29.79,WNW,302,0.0,0.0,95,0.01,,---,0.01,VWS V14.01,2013-05-07 09:21:00,
2013-05-07 04:26:00,52.8,51.7,29.79,WNW,302,0.0,0.0,96,0.01,,---,0.01,VWS V14.01,2013-05-07 09:26:00,
2013-05-07 04:31:00,52.7,51.3,29.79,WNW,302,0.0,0.0,95,0.01,,---,0.01,VWS V14.01,2013-05-07 09:31:00,
2013-05-07 04:36:00,52.5,51.1,29.79,WNW,302,0.0,0.0,95,0.01,,---,0.01,VWS V14.01,2013-05-07 09:36:00,
2013-05-07 04:41:00,52.3,51.2,29.79,WNW,302,0.0,0.0,96,0.01,,---,0.01,VWS V14.01,2013-05-07 09:41:00,
2013-05-07 04:46:00,52.1,51.0,29.79,WNW,302,0.0,0.0,96,0.01,,---,0.01,VWS V14.01,2013-05-07 09:46:00,
2013-05-07 04:51:00,51.9,50.5,29.79,WNW,302,0.0,0.0,95,0.01,,---,0.01,VWS V14.01,2013-05-07 09:51:00,
2013-05-07 04:56:00,51.7,50.3,29.79,WNW,302,0.0,0.0,95,0.01,,---,0.01,VWS V14.01,2013-05-07 09:56:00,
2013-05-07 05:01:00,51.6,50.5,29.80,WNW,302,0.0,0.0,96,0.01,,---,0.01,VWS V14.01,2013-05-07 10:01:00,
2013-05-07 05:06:00,51.5,50.1,29.80,WNW,302,0.0,0.0,95,0.00,,---,0.01,VWS V14.01,2013-05-07 10:06:00,
2013-05-07 05:11:00,51.4,50.0,29.80,WNW,302,0.0,0.0,95,0.00,,---,0.01,VWS V14.01,2013-05-07 10:11:00,
2013-05-07 05:16:00,51.4,50.0,29.81,WNW,302,0.0,0.0,95,0.00,,---,0.01,VWS V14.01,2013-05-07 10:16:00,
2013-05-07 05:21:00,51.3,49.9,29.81,WNW,302,0.0,0.0,95,0.00,,---,0.01,VWS V14.01,2013-05-07 10:21:00,
2013-05-07 05:26:00,51.4,50.3,29.81,WNW,302,0.0,3.0,96,0.00,,---,0.01,VWS V14.01,2013-05-07 10:26:00,
2013-05-07 05:31:00,51.7,50.6,29.82,WNW,302,0.0,3.0,96,0.00,,---,0.01,VWS V14.01,2013-05-07 10:31:00,
2013-05-07 05:36:00,51.8,50.7,29.82,WNW,302,0.0,1.0,96,0.00,,---,0.01,VWS V14.01,2013-05-07 10:36:00,
2013-05-07 05:41:00,52.0,50.9,29.82,WNW,302,0.0,1.0,96,0.00,,---,0.01,VWS V14.01,2013-05-07 10:41:00,
2013-05-07 05:46:00,52.2,51.1,29.82,WNW,302,0.0,1.0,96,0.00,,---,0.01,VWS V14.01,2013-05-07 10:46:00,
2013-05-07 05:51:00,52.2,51.1,29.82,WNW,303,0.0,1.0,96,0.00,,---,0.01,VWS V14.01,2013-05-07 10:51:00,
2013-05-07 05:56:00,52.3,51.2,29.82,WNW,301,0.0,1.0,96,0.00,,---,0.01,VWS V14.01,2013-05-07 10:56:00,
2013-05-07 06:01:00,52.3,51.2,29.83,WNW,302,0.0,1.0,96,0.00,,---,0.01,VWS V14.01,2013-05-07 11:01:00,
2013-05-07 06:06:00,52.4,51.3,29.83,WNW,301,0.0,0.0,96,0.00,,---,0.01,VWS V14.01,2013-05-07 11:06:00,
2013-05-07 06:11:00,52.5,51.4,29.83,WNW,303,0.0,0.0,96,0.00,,---,0.01,VWS V14.01,2013-05-07 11:11:00,
2013-05-07 06:16:00,52.6,51.5,29.83,WNW,303,0.0,2.0,96,0.00,,---,0.01,VWS V14.01,2013-05-07 11:16:00,
2013-05-07 06:21:00,52.7,51.6,29.83,WNW,301,0.0,2.0,96,0.00,,---,0.01,VWS V14.01,2013-05-07 11:21:00,
2013-05-07 06:26:00,52.7,51.6,29.83,WNW,302,0.0,2.0,96,0.00,,---,0.01,VWS V14.01,2013-05-07 11:26:00,
2013-05-07 06:31:00,52.8,51.7,29.84,WNW,301,1.0,2.0,96,0.00,,---,0.01,VWS V14.01,2013-05-07 11:31:00,
2013-05-07 06:36:00,52.9,51.8,29.84,WNW,302,0.0,0.0,96,0.00,,---,0.01,VWS V14.01,2013-05-07 11:36:00,
2013-05-07 06:41:00,53.0,51.9,29.84,WNW,302,0.0,1.0,96,0.00,,---,0.01,VWS V14.01,2013-05-07 11:41:00,
2013-05-07 06:46:00,53.1,52.0,29.85,WNW,302,2.0,2.0,96,0.00,,---,0.01,VWS V14.01,2013-05-07 11:46:00,
2013-05-07 06:51:00,53.2,52.1,29.85,WNW,303,0.0,2.0,96,0.00,,---,0.01,VWS V14.01,2013-05-07 11:51:00,
2013-05-07 06:56:00,53.3,52.2,29.85,WNW,302,0.0,2.0,96,0.00,,---,0.01,VWS V14.01,2013-05-07 11:56:00,
2013-05-07 07:01:00,53.3,52.2,29.86,WNW,302,0.0,2.0,96,0.00,,---,0.01,VWS V14.01,2013-05-07 12:01:00,
2013-05-07 07:06:00,53.3,52.2,29.86,NW,305,0.0,2.0,96,0.00,,---,0.01,VWS V14.01,2013-05-07 12:06:00,
2013-05-07 07:11:00,53.3,52.2,29.86,NW,306,0.0,3.0,96,0.00,,---,0.01,VWS V14.01,2013-05-07 12:11:00,
2013-05-07 07:16:00,53.3,52.2,29.85,NW,304,0.0,3.0,96,0.00,,---,0.01,VWS V14.01,2013-05-07 12:16:00,
2013-05-07 07:21:00,53.5,52.4,29.85,NW,306,0.0,3.0,96,0.00,,---,0.01,VWS V14.01,2013-05-07 12:21:00,
2013-05-07 07:26:00,53.6,52.5,29.85,NW,305,1.0,3.0,96,0.00,,---,0.01,VWS V14.01,2013-05-07 12:26:00,
2013-05-07 07:31:00,53.6,52.5,29.86,NE,51,0.0,3.0,96,0.00,,---,0.01,VWS V14.01,2013-05-07 12:31:00,
2013-05-07 07:36:00,53.7,52.6,29.86,NE,52,0.0,2.0,96,0.00,,---,0.01,VWS V14.01,2013-05-07 12:36:00,
2013-05-07 07:41:00,53.8,52.7,29.86,NNE,26,0.0,2.0,96,0.00,,---,0.01,VWS V14.01,2013-05-07 12:41:00,
2013-05-07 07:46:00,54.1,53.0,29.86,ENE,63,0.0,3.0,96,0.00,,---,0.01,VWS V14.01,2013-05-07 12:46:00,
2013-05-07 07:51:00,54.3,53.2,29.86,ENE,76,1.0,3.0,96,0.00,,---,0.01,VWS V14.01,2013-05-07 12:51:00,
2013-05-07 07:56:00,54.4,53.3,29.86,ENE,66,2.0,3.0,96,0.00,,---,0.01,VWS V14.01,2013-05-07 12:56:00,
2013-05-07 08:01:00,54.5,53.4,29.86,ENE,59,0.0,3.0,96,0.00,,---,0.01,VWS V14.01,2013-05-07 13:01:00,
2013-05-07 08:06:00,54.7,53.6,29.86,NE,42,1.0,3.0,96,0.00,,---,0.01,VWS V14.01,2013-05-07 13:06:00,
2013-05-07 08:11:00,54.8,53.7,29.86,ENE,65,0.0,3.0,96,0.00,,---,0.01,VWS V14.01,2013-05-07 13:11:00,
2013-05-07 08:16:00,54.8,53.7,29.87,ENE,66,1.0,3.0,96,0.00,,---,0.01,VWS V14.01,2013-05-07 13:16:00,
2013-05-07 08:21:00,55.0,53.9,29.87,ENE,71,3.0,3.0,96,0.00,,---,0.01,VWS V14.01,2013-05-07 13:21:00,
2013-05-07 08:26:00,55.3,54.2,29.87,ENE,71,2.0,3.0,96,0.00,,---,0.01,VWS V14.01,2013-05-07 13:26:00,
2013-05-07 08:31:00,55.5,54.4,29.87,ENE,67,0.0,3.0,96,0.00,,---,0.01,VWS V14.01,2013-05-07 13:31:00,
2013-05-07 08:36:00,55.7,54.6,29.87,ENE,65,0.0,3.0,96,0.00,,---,0.01,VWS V14.01,2013-05-07 13:36:00,
2013-05-07 08:41:00,56.1,55.0,29.87,ENE,65,0.0,3.0,96,0.00,,---,0.01,VWS V14.01,2013-05-07 13:41:00,
2013-05-07 08:46:00,56.3,55.2,29.88,NE,49,0.0,3.0,96,0.00,,---,0.01,VWS V14.01,2013-05-07 13:46:00,
2013-05-07 08:51:00,56.6,55.5,29.88,NE,50,0.0,3.0,96,0.00,,---,0.01,VWS V14.01,2013-05-07 13:51:00,
2013-05-07 08:56:00,56.8,55.7,29.88,NE,50,0.0,3.0,96,0.00,,---,0.01,VWS V14.01,2013-05-07 13:56:00,
2013-05-07 09:01:00,57.1,56.0,29.88,NE,49,0.0,3.0,96,0.00,,---,0.01,VWS V14.01,2013-05-07 14:01:00,
2013-05-07 09:06:00,57.5,56.7,29.88,NNE,32,0.0,2.0,97,0.00,,---,0.01,VWS V14.01,2013-05-07 14:06:00,
2013-05-07 09:11:00,57.9,56.8,29.88,NE,38,0.0,2.0,96,0.00,,---,0.01,VWS V14.01,2013-05-07 14:11:00,
2013-05-07 09:16:00,58.4,57.3,29.88,NE,45,2.0,3.0,96,0.00,,---,0.01,VWS V14.01,2013-05-07 14:16:00,
2013-05-07 09:21:00,58.4,57.3,29.88,ENE,62,3.0,3.0,96,0.00,,---,0.01,VWS V14.01,2013-05-07 14:21:00,
2013-05-07 09:26:00,58.6,57.5,29.88,NNE,33,0.0,4.0,96,0.00,,---,0.01,VWS V14.01,2013-05-07 14:26:00,
2013-05-07 09:31:00,59.0,57.9,29.88,NNE,32,0.0,4.0,96,0.00,,---,0.01,VWS V14.01,2013-05-07 14:31:00,
2013-05-07 09:36:00,59.9,58.8,29.88,WNW,295,0.0,4.0,96,0.00,,---,0.01,VWS V14.01,2013-05-07 14:36:00,
2013-05-07 09:41:00,60.3,59.5,29.88,East,83,0.0,4.0,97,0.00,,---,0.01,VWS V14.01,2013-05-07 14:41:00,
2013-05-07 09:46:00,61.3,60.4,29.88,NE,43,1.0,4.0,97,0.00,,---,0.01,VWS V14.01,2013-05-07 14:46:00,
2013-05-07 09:51:00,61.8,60.9,29.88,ENE,70,0.0,4.0,97,0.00,,---,0.01,VWS V14.01,2013-05-07 14:51:00,
2013-05-07 09:56:00,62.2,61.0,29.88,ENE,69,0.0,4.0,96,0.00,,---,0.01,VWS V14.01,2013-05-07 14:56:00,
2013-05-07 10:01:00,62.4,61.2,29.88,ENE,70,3.0,4.0,96,0.00,,---,0.01,VWS V14.01,2013-05-07 15:01:00,
2013-05-07 10:06:00,62.4,61.2,29.88,East,98,0.0,3.0,96,0.00,,---,0.01,VWS V14.01,2013-05-07 15:06:00,
2013-05-07 10:11:00,62.9,61.2,29.88,NNW,347,0.0,5.0,94,0.00,,---,0.01,VWS V14.01,2013-05-07 15:11:00,
2013-05-07 10:16:00,63.6,60.6,29.88,NE,51,4.0,6.0,90,0.00,,---,0.01,VWS V14.01,2013-05-07 15:16:00,
2013-05-07 10:21:00,64.0,60.1,29.88,NNE,19,0.0,6.0,87,0.00,,---,0.01,VWS V14.01,2013-05-07 15:21:00,
2013-05-07 10:26:00,65.2,60.6,29.88,NNW,342,0.0,6.0,85,0.00,,---,0.01,VWS V14.01,2013-05-07 15:26:00,
2013-05-07 10:31:00,65.8,60.5,29.88,WNW,298,6.0,6.0,83,0.00,,---,0.01,VWS V14.01,2013-05-07 15:31:00,
2013-05-07 10:36:00,64.6,58.7,29.88,WNW,289,2.0,7.0,81,0.00,,---,0.01,VWS V14.01,2013-05-07 15:36:00,
2013-05-07 10:41:00,64.8,58.8,29.88,NW,314,4.0,7.0,81,0.00,,---,0.01,VWS V14.01,2013-05-07 15:41:00,
2013-05-07 10:46:00,64.9,58.2,29.87,North,11,4.0,7.0,79,0.00,,---,0.01,VWS V14.01,2013-05-07 15:46:00,
2013-05-07 10:51:00,65.6,58.9,29.87,East,79,1.0,7.0,79,0.00,,---,0.01,VWS V14.01,2013-05-07 15:51:00,
2013-05-07 10:56:00,66.1,58.7,29.87,ENE,63,3.0,7.0,77,0.00,,---,0.01,VWS V14.01,2013-05-07 15:56:00,
2013-05-07 11:01:00,66.8,59.4,29.87,ENE,61,1.0,7.0,77,0.00,,---,0.01,VWS V14.01,2013-05-07 16:01:00,
2013-05-07 11:06:00,67.5,59.3,29.87,ENE,60,8.0,9.0,75,0.00,,---,0.01,VWS V14.01,2013-05-07 16:06:00,
2013-05-07 11:11:00,67.5,58.9,29.87,WNW,288,4.0,9.0,74,0.00,,---,0.01,VWS V14.01,2013-05-07 16:11:00,
2013-05-07 11:16:00,67.5,58.9,29.87,East,89,1.0,9.0,74,0.00,,---,0.01,VWS V14.01,2013-05-07 16:16:00,
2013-05-07 11:21:00,67.9,59.3,29.87,East,86,6.0,9.0,74,0.00,,---,0.01,VWS V14.01,2013-05-07 16:21:00,
2013-05-07 11:26:00,68.0,58.3,29.87,ESE,108,3.0,9.0,71,0.00,,---,0.01,VWS V14.01,2013-05-07 16:26:00,
2013-05-07 11:31:00,68.4,59.4,29.86,ENE,70,1.0,9.0,73,0.00,,---,0.01,VWS V14.01,2013-05-07 16:31:00,
2013-05-07 11:36:00,69.3,59.5,29.86,East,95,1.0,4.0,71,0.00,,---,0.01,VWS V14.01,2013-05-07 16:36:00,
2013-05-07 11:41:00,70.0,59.8,29.86,NE,50,0.0,6.0,70,0.00,,---,0.01,VWS V14.01,2013-05-07 16:41:00,
2013-05-07 11:46:00,69.8,58.4,29.87,East,96,3.0,11.0,67,0.00,,---,0.01,VWS V14.01,2013-05-07 16:46:00,
2013-05-07 11:51:00,69.9,58.5,29.87,North,350,3.0,11.0,67,0.00,,---,0.01,VWS V14.01,2013-05-07 16:51:00,
2013-05-07 11:56:00,70.1,58.2,29.87,North,355,0.0,11.0,66,0.00,,---,0.01,VWS V14.01,2013-05-07 16:56:00,
2013-05-07 12:01:00,70.4,58.9,29.86,NE,42,0.0,11.0,67,0.00,,---,0.01,VWS V14.01,2013-05-07 17:01:00,
2013-05-07 12:06:00,70.3,58.4,29.86,NNW,344,1.0,10.0,66,0.00,,---,0.01,VWS V14.01,2013-05-07 17:06:00,
2013-05-07 12:11:00,70.3,58.8,29.86,North,355,7.0,10.0,67,0.00,,---,0.01,VWS V14.01,2013-05-07 17:11:00,
2013-05-07 12:16:00,69.8,57.5,29.87,NE,38,0.0,10.0,65,0.00,,---,0.01,VWS V14.01,2013-05-07 17:16:00,
2013-05-07 12:21:00,69.3,57.9,29.87,East,82,4.0,10.0,67,0.00,,---,0.01,VWS V14.01,2013-05-07 17:21:00,
2013-05-07 12:26:00,68.7,58.1,29.87,North,9,0.0,10.0,69,0.00,,---,0.01,VWS V14.01,2013-05-07 17:26:00,
2013-05-07 12:31:00,69.6,58.2,29.87,East,94,6.0,10.0,67,0.00,,---,0.01,VWS V14.01,2013-05-07 17:31:00,
2013-05-07 12:36:00,69.8,58.4,29.87,NNW,333,2.0,5.0,67,0.00,,---,0.01,VWS V14.01,2013-05-07 17:36:00,
2013-05-07 12:41:00,70.1,57.8,29.87,East,85,1.0,6.0,65,0.00,,---,0.01,VWS V14.01,2013-05-07 17:41:00,
2013-05-07 12:46:00,70.3,57.6,29.87,NE,38,0.0,10.0,64,0.00,,---,0.01,VWS V14.01,2013-05-07 17:46:00,
2013-05-07 12:51:00,70.4,58.1,29.87,ESE,108,6.0,10.0,65,0.00,,---,0.01,VWS V14.01,2013-05-07 17:51:00,
2013-05-07 12:56:00,70.5,58.6,29.87,ENE,69,2.0,10.0,66,0.00,,---,0.01,VWS V14.01,2013-05-07 17:56:00,
2013-05-07 13:01:00,71.4,59.0,29.86,NE,56,3.0,10.0,65,0.00,,---,0.01,VWS V14.01,2013-05-07 18:01:00,
2013-05-07 13:06:00,71.4,58.6,29.86,East,88,4.0,7.0,64,0.00,,---,0.01,VWS V14.01,2013-05-07 18:06:00,
2013-05-07 13:11:00,71.5,58.7,29.86,ESE,102,0.0,7.0,64,0.00,,---,0.01,VWS V14.01,2013-05-07 18:11:00,
2013-05-07 13:16:00,71.4,57.7,29.86,East,84,4.0,7.0,62,0.00,,---,0.01,VWS V14.01,2013-05-07 18:16:00,
2013-05-07 13:21:00,71.4,57.7,29.86,NE,49,3.0,9.0,62,0.00,,---,0.01,VWS V14.01,2013-05-07 18:21:00,
2013-05-07 13:26:00,71.5,57.4,29.86,ENE,70,2.0,9.0,61,0.00,,---,0.01,VWS V14.01,2013-05-07 18:26:00,
2013-05-07 13:31:00,71.5,57.8,29.86,ENE,69,3.0,9.0,62,0.00,,---,0.01,VWS V14.01,2013-05-07 18:31:00,
2013-05-07 13:36:00,71.1,56.5,29.86,ENE,74,2.0,7.0,60,0.00,,---,0.01,VWS V14.01,2013-05-07 18:36:00,
2013-05-07 13:41:00,71.3,56.7,29.86,ENE,69,2.0,7.0,60,0.00,,---,0.01,VWS V14.01,2013-05-07 18:41:00,
2013-05-07 13:46:00,71.3,57.2,29.86,East,89,0.0,7.0,61,0.00,,---,0.01,VWS V14.01,2013-05-07 18:46:00,
2013-05-07 13:51:00,71.2,56.6,29.86,NNW,338,0.0,7.0,60,0.00,,---,0.01,VWS V14.01,2013-05-07 18:51:00,
2013-05-07 13:56:00,71.9,58.2,29.86,ENE,76,2.0,7.0,62,0.00,,---,0.01,VWS V14.01,2013-05-07 18:56:00,
2013-05-07 14:01:00,73.1,57.9,29.85,ENE,58,2.0,9.0,59,0.00,,---,0.01,VWS V14.01,2013-05-07 19:01:00,
2013-05-07 14:06:00,73.5,58.8,29.85,North,355,0.0,4.0,60,0.00,,---,0.01,VWS V14.01,2013-05-07 19:06:00,
2013-05-07 14:11:00,73.8,58.6,29.85,ENE,69,2.0,4.0,59,0.00,,---,0.01,VWS V14.01,2013-05-07 19:11:00,
2013-05-07 14:16:00,73.9,58.7,29.85,North,351,0.0,5.0,59,0.00,,---,0.01,VWS V14.01,2013-05-07 19:16:00,
2013-05-07 14:21:00,74.0,57.3,29.85,NE,56,0.0,6.0,56,0.00,,---,0.01,VWS V14.01,2013-05-07 19:21:00,
2013-05-07 14:26:00,73.8,57.6,29.85,WNW,298,4.0,6.0,57,0.00,,---,0.01,VWS V14.01,2013-05-07 19:26:00,
2013-05-07 14:31:00,72.8,57.2,29.85,ENE,67,1.0,6.0,58,0.00,,---,0.01,VWS V14.01,2013-05-07 19:31:00,
2013-05-07 14:36:00,72.7,57.6,29.85,NNW,341,2.0,5.0,59,0.00,,---,0.01,VWS V14.01,2013-05-07 19:36:00,
2013-05-07 14:41:00,72.5,57.8,29.85,NW,317,3.0,5.0,60,0.00,,---,0.01,VWS V14.01,2013-05-07 19:41:00,
2013-05-07 14:46:00,72.3,57.7,29.85,NE,34,0.0,5.0,60,0.00,,---,0.01,VWS V14.01,2013-05-07 19:46:00,
2013-05-07 14:51:00,72.7,58.0,29.85,NW,325,3.0,8.0,60,0.00,,---,0.01,VWS V14.01,2013-05-07 19:51:00,
2013-05-07 14:56:00,72.3,58.6,29.85,NW,310,1.0,8.0,62,0.00,,---,0.01,VWS V14.01,2013-05-07 19:56:00,
2013-05-07 15:01:00,72.1,59.7,29.84,WNW,302,5.0,8.0,65,0.00,,---,0.01,VWS V14.01,2013-05-07 20:01:00,
2013-05-07 15:06:00,72.1,59.3,29.84,West,267,1.0,4.0,64,0.00,,---,0.01,VWS V14.01,2013-05-07 20:06:00,
2013-05-07 15:11:00,71.8,59.4,29.84,West,281,2.0,6.0,65,0.00,,---,0.01,VWS V14.01,2013-05-07 20:11:00,
2013-05-07 15:16:00,71.7,59.3,29.84,West,272,2.0,6.0,65,0.00,,---,0.01,VWS V14.01,2013-05-07 20:16:00,
2013-05-07 15:21:00,71.8,59.4,29.84,NW,308,3.0,6.0,65,0.00,,---,0.01,VWS V14.01,2013-05-07 20:21:00,
2013-05-07 15:26:00,71.1,58.8,29.84,NW,324,5.0,7.0,65,0.00,,---,0.01,VWS V14.01,2013-05-07 20:26:00,
2013-05-07 15:31:00,70.6,58.3,29.84,WNW,291,2.0,8.0,65,0.00,,---,0.01,VWS V14.01,2013-05-07 20:31:00,
2013-05-07 15:36:00,70.3,58.8,29.84,NW,304,0.0,3.0,67,0.00,,---,0.01,VWS V14.01,2013-05-07 20:36:00,
2013-05-07 15:41:00,70.4,58.5,29.84,West,281,0.0,3.0,66,0.00,,---,0.01,VWS V14.01,2013-05-07 20:41:00,
2013-05-07 15:46:00,70.7,58.4,29.84,WNW,282,0.0,3.0,65,0.00,,---,0.01,VWS V14.01,2013-05-07 20:46:00,
2013-05-07 15:51:00,70.9,58.1,29.84,West,281,0.0,3.0,64,0.00,,---,0.01,VWS V14.01,2013-05-07 20:51:00,
2013-05-07 15:56:00,71.0,57.8,29.84,NNE,30,0.0,3.0,63,0.00,,---,0.01,VWS V14.01,2013-05-07 20:56:00,
2013-05-07 16:01:00,71.3,58.1,29.84,NW,305,2.0,3.0,63,0.00,,---,0.01,VWS V14.01,2013-05-07 21:01:00,
2013-05-07 16:06:00,71.3,57.6,29.84,NW,325,0.0,5.0,62,0.00,,---,0.01,VWS V14.01,2013-05-07 21:06:00,
2013-05-07 16:11:00,71.3,57.6,29.84,NNW,327,0.0,5.0,62,0.00,,---,0.01,VWS V14.01,2013-05-07 21:11:00,
2013-05-07 16:16:00,71.4,57.7,29.83,NW,311,0.0,5.0,62,0.00,,---,0.01,VWS V14.01,2013-05-07 21:16:00,
2013-05-07 16:21:00,71.7,58.0,29.83,NW,309,0.0,5.0,62,0.00,,---,0.01,VWS V14.01,2013-05-07 21:21:00,
2013-05-07 16:26:00,72.2,58.5,29.83,NW,311,0.0,5.0,62,0.00,,---,0.01,VWS V14.01,2013-05-07 21:26:00,
2013-05-07 16:31:00,72.8,58.6,29.83,NW,310,0.0,5.0,61,0.00,,---,0.01,VWS V14.01,2013-05-07 21:31:00,
2013-05-07 16:36:00,73.2,58.5,29.83,NE,40,0.0,1.0,60,0.00,,---,0.01,VWS V14.01,2013-05-07 21:36:00,
2013-05-07 16:41:00,73.4,58.7,29.83,NE,40,0.0,1.0,60,0.00,,---,0.01,VWS V14.01,2013-05-07 21:41:00,
2013-05-07 16:46:00,73.5,59.2,29.83,ESE,115,0.0,1.0,61,0.00,,---,0.01,VWS V14.01,2013-05-07 21:46:00,
2013-05-07 16:51:00,73.4,59.6,29.83,ESE,114,0.0,1.0,62,0.00,,---,0.01,VWS V14.01,2013-05-07 21:51:00,
2013-05-07 16:56:00,73.2,59.4,29.83,NNW,336,1.0,2.0,62,0.00,,---,0.01,VWS V14.01,2013-05-07 21:56:00,
2013-05-07 17:01:00,72.8,59.5,29.83,NNW,336,0.0,2.0,63,0.00,,---,0.01,VWS V14.01,2013-05-07 22:01:00,
2013-05-07 17:06:00,72.4,59.1,29.83,NNW,336,0.0,1.0,63,0.00,,---,0.01,VWS V14.01,2013-05-07 22:06:00,
2013-05-07 17:11:00,72.0,58.7,29.83,NNW,336,0.0,1.0,63,0.00,,---,0.01,VWS V14.01,2013-05-07 22:11:00,
2013-05-07 17:16:00,71.7,58.9,29.83,NNW,336,0.0,1.0,64,0.00,,---,0.01,VWS V14.01,2013-05-07 22:16:00,
2013-05-07 17:21:00,71.5,59.1,29.83,NNW,336,0.0,1.0,65,0.00,,---,0.01,VWS V14.01,2013-05-07 22:21:00,
2013-05-07 17:26:00,71.3,58.9,29.83,NNW,335,0.0,1.0,65,0.00,,---,0.01,VWS V14.01,2013-05-07 22:26:00,
2013-05-07 17:31:00,71.2,59.3,29.83,NNW,336,0.0,1.0,66,0.00,,---,0.01,VWS V14.01,2013-05-07 22:31:00,
2013-05-07 17:36:00,71.0,59.5,29.83,NNW,334,0.0,0.0,67,0.00,,---,0.01,VWS V14.01,2013-05-07 22:36:00,
2013-05-07 17:41:00,70.8,59.3,29.83,NNW,335,0.0,0.0,67,0.00,,---,0.01,VWS V14.01,2013-05-07 22:41:00,
2013-05-07 17:46:00,70.5,59.8,29.83,NNW,336,0.0,0.0,69,0.00,,---,0.01,VWS V14.01,2013-05-07 22:46:00,
2013-05-07 17:51:00,70.5,59.4,29.83,NNW,335,0.0,1.0,68,0.00,,---,0.01,VWS V14.01,2013-05-07 22:51:00,
2013-05-07 17:56:00,70.5,59.4,29.83,NNW,336,0.0,1.0,68,0.00,,---,0.01,VWS V14.01,2013-05-07 22:56:00,
2013-05-07 18:01:00,70.6,59.5,29.83,NNW,336,0.0,1.0,68,0.00,,---,0.01,VWS V14.01,2013-05-07 23:01:00,
2013-05-07 18:06:00,70.6,59.5,29.83,NNW,336,0.0,0.0,68,0.00,,---,0.01,VWS V14.01,2013-05-07 23:06:00,
2013-05-07 18:11:00,70.7,59.6,29.83,NNW,335,0.0,0.0,68,0.00,,---,0.01,VWS V14.01,2013-05-07 23:11:00,
2013-05-07 18:16:00,70.7,59.6,29.83,NNW,335,0.0,1.0,68,0.00,,---,0.01,VWS V14.01,2013-05-07 23:16:00,
2013-05-07 18:21:00,70.7,59.6,29.83,NNW,335,0.0,1.0,68,0.00,,---,0.01,VWS V14.01,2013-05-07 23:21:00,
2013-05-07 18:26:00,70.5,59.8,29.83,NNW,335,0.0,1.0,69,0.00,,---,0.01,VWS V14.01,2013-05-07 23:26:00,
2013-05-07 18:31:00,70.4,59.8,29.83,NNW,336,0.0,1.0,69,0.00,,---,0.01,VWS V14.01,2013-05-07 23:31:00,
2013-05-07 18:36:00,70.3,60.1,29.83,NNW,336,0.0,0.0,70,0.00,,---,0.01,VWS V14.01,2013-05-07 23:36:00,
2013-05-07 18:41:00,70.3,60.1,29.83,NNW,336,0.0,0.0,70,0.00,,---,0.01,VWS V14.01,2013-05-07 23:41:00,
2013-05-07 18:46:00,70.3,60.5,29.83,NNW,336,0.0,0.0,71,0.00,,---,0.01,VWS V14.01,2013-05-07 23:46:00,
2013-05-07 18:51:00,70.1,60.3,29.83,NNW,334,0.0,0.0,71,0.00,,---,0.01,VWS V14.01,2013-05-07 23:51:00,
2013-05-07 18:56:00,69.8,60.8,29.83,NNW,335,0.0,0.0,73,0.00,,---,0.01,VWS V14.01,2013-05-07 23:56:00,
2013-05-07 19:01:00,69.5,60.5,29.83,NNW,336,0.0,0.0,73,0.00,,---,0.01,VWS V14.01,2013-05-08 00:01:00,
2013-05-07 19:06:00,69.1,60.5,29.83,NNW,336,0.0,0.0,74,0.00,,---,0.01,VWS V14.01,2013-05-08 00:06:00,
2013-05-07 19:11:00,68.6,60.7,29.83,NNW,335,0.0,0.0,76,0.00,,---,0.01,VWS V14.01,2013-05-08 00:11:00,
2013-05-07 19:16:00,68.3,60.8,29.84,NNW,336,0.0,0.0,77,0.00,,---,0.01,VWS V14.01,2013-05-08 00:16:00,
2013-05-07 19:21:00,67.9,60.4,29.84,NNW,335,0.0,0.0,77,0.00,,---,0.01,VWS V14.01,2013-05-08 00:21:00,
2013-05-07 19:26:00,67.5,60.4,29.84,NNW,335,0.0,0.0,78,0.00,,---,0.01,VWS V14.01,2013-05-08 00:26:00,
2013-05-07 19:31:00,67.1,60.4,29.84,NNW,334,0.0,0.0,79,0.00,,---,0.01,VWS V14.01,2013-05-08 00:31:00,
2013-05-07 19:36:00,66.6,60.2,29.84,NNW,335,0.0,0.0,80,0.00,,---,0.01,VWS V14.01,2013-05-08 00:36:00,
2013-05-07 19:41:00,66.0,60.0,29.84,NNW,336,0.0,0.0,81,0.00,,---,0.01,VWS V14.01,2013-05-08 00:41:00,
2013-05-07 19:46:00,65.4,59.8,29.85,NNW,335,0.0,0.0,82,0.00,,---,0.01,VWS V14.01,2013-05-08 00:46:00,
2013-05-07 19:51:00,65.0,59.7,29.85,NNW,336,0.0,0.0,83,0.00,,---,0.01,VWS V14.01,2013-05-08 00:51:00,
2013-05-07 19:56:00,64.5,59.6,29.85,NNW,334,0.0,0.0,84,0.00,,---,0.01,VWS V14.01,2013-05-08 00:56:00,
2013-05-07 20:01:00,64.1,59.2,29.85,NNW,335,0.0,0.0,84,0.00,,---,0.01,VWS V14.01,2013-05-08 01:01:00,
2013-05-07 20:06:00,63.7,59.1,29.85,NNW,336,0.0,0.0,85,0.00,,---,0.01,VWS V14.01,2013-05-08 01:06:00,
2013-05-07 20:11:00,63.4,59.2,29.85,NNW,336,0.0,0.0,86,0.00,,---,0.01,VWS V14.01,2013-05-08 01:11:00,
2013-05-07 20:16:00,63.1,58.8,29.85,NNW,335,0.0,0.0,86,0.00,,---,0.01,VWS V14.01,2013-05-08 01:16:00,
2013-05-07 20:21:00,62.8,58.9,29.85,NNW,335,0.0,0.0,87,0.00,,---,0.01,VWS V14.01,2013-05-08 01:21:00,
2013-05-07 20:26:00,62.5,58.6,29.85,NNW,335,0.0,0.0,87,0.00,,---,0.01,VWS V14.01,2013-05-08 01:26:00,
2013-05-07 20:31:00,62.2,58.6,29.85,NNW,335,0.0,0.0,88,0.00,,---,0.01,VWS V14.01,2013-05-08 01:31:00,
2013-05-07 20:36:00,62.2,58.3,29.85,NNW,336,0.0,0.0,87,0.00,,---,0.01,VWS V14.01,2013-05-08 01:36:00,
2013-05-07 20:41:00,62.3,58.4,29.85,NNW,335,0.0,0.0,87,0.00,,---,0.01,VWS V14.01,2013-05-08 01:41:00,
2013-05-07 20:46:00,62.3,58.4,29.86,NNW,335,0.0,0.0,87,0.00,,---,0.01,VWS V14.01,2013-05-08 01:46:00,
2013-05-07 20:51:00,62.2,58.3,29.86,NNW,335,0.0,0.0,87,0.00,,---,0.01,VWS V14.01,2013-05-08 01:51:00,
2013-05-07 20:56:00,62.1,58.2,29.86,NNW,336,0.0,0.0,87,0.00,,---,0.01,VWS V14.01,2013-05-08 01:56:00,
2013-05-07 21:01:00,62.0,58.1,29.86,NNW,335,0.0,0.0,87,0.00,,---,0.01,VWS V14.01,2013-05-08 02:01:00,
2013-05-07 21:06:00,61.8,57.9,29.86,NNW,336,0.0,0.0,87,0.00,,---,0.01,VWS V14.01,2013-05-08 02:06:00,
2013-05-07 21:11:00,61.6,57.7,29.86,NNW,335,0.0,0.0,87,0.00,,---,0.01,VWS V14.01,2013-05-08 02:11:00,
2013-05-07 21:16:00,61.4,57.8,29.86,NNW,335,0.0,0.0,88,0.00,,---,0.01,VWS V14.01,2013-05-08 02:16:00,
2013-05-07 21:21:00,61.1,57.5,29.86,NNW,336,0.0,0.0,88,0.00,,---,0.01,VWS V14.01,2013-05-08 02:21:00,
2013-05-07 21:26:00,60.9,57.3,29.86,NNW,336,0.0,0.0,88,0.00,,---,0.01,VWS V14.01,2013-05-08 02:26:00,
2013-05-07 21:31:00,60.6,57.3,29.86,NNW,335,0.0,0.0,89,0.00,,---,0.01,VWS V14.01,2013-05-08 02:31:00,
2013-05-07 21:36:00,60.2,57.0,29.86,NNW,336,0.0,0.0,89,0.00,,---,0.01,VWS V14.01,2013-05-08 02:36:00,
2013-05-07 21:41:00,59.9,56.7,29.86,NNW,335,0.0,0.0,89,0.00,,---,0.01,VWS V14.01,2013-05-08 02:41:00,
2013-05-07 21:46:00,59.6,56.7,29.87,NNW,335,0.0,0.0,90,0.00,,---,0.01,VWS V14.01,2013-05-08 02:46:00,
2013-05-07 21:51:00,59.4,56.5,29.87,NNW,335,0.0,0.0,90,0.00,,---,0.01,VWS V14.01,2013-05-08 02:51:00,
2013-05-07 21:56:00,59.0,56.1,29.87,NNW,336,0.0,0.0,90,0.00,,---,0.01,VWS V14.01,2013-05-08 02:56:00,
2013-05-07 22:01:00,59.0,56.4,29.87,NNW,335,0.0,0.0,91,0.00,,---,0.01,VWS V14.01,2013-05-08 03:01:00,
2013-05-07 22:06:00,59.0,56.4,29.87,NNW,335,0.0,0.0,91,0.00,,---,0.01,VWS V14.01,2013-05-08 03:06:00,
2013-05-07 22:11:00,59.0,56.4,29.87,NNW,336,0.0,0.0,91,0.00,,---,0.01,VWS V14.01,2013-05-08 03:11:00,
2013-05-07 22:16:00,59.0,56.7,29.87,NNW,335,0.0,0.0,92,0.00,,---,0.01,VWS V14.01,2013-05-08 03:16:00,
2013-05-07 22:21:00,59.0,56.7,29.87,NNW,336,0.0,0.0,92,0.00,,---,0.01,VWS V14.01,2013-05-08 03:21:00,
2013-05-07 22:26:00,58.7,56.4,29.87,NNW,335,0.0,0.0,92,0.00,,---,0.01,VWS V14.01,2013-05-08 03:26:00,
2013-05-07 22:31:00,58.6,56.3,29.86,NNW,336,0.0,0.0,92,0.00,,---,0.01,VWS V14.01,2013-05-08 03:31:00,
2013-05-07 22:36:00,58.5,56.2,29.86,NNW,336,0.0,0.0,92,0.00,,---,0.01,VWS V14.01,2013-05-08 03:36:00,
2013-05-07 22:41:00,58.4,56.1,29.86,NNW,335,0.0,0.0,92,0.00,,---,0.01,VWS V14.01,2013-05-08 03:41:00,
2013-05-07 22:46:00,58.2,55.9,29.87,NNW,336,0.0,0.0,92,0.00,,---,0.01,VWS V14.01,2013-05-08 03:46:00,
2013-05-07 22:51:00,58.0,55.7,29.87,NNW,335,0.0,0.0,92,0.00,,---,0.01,VWS V14.01,2013-05-08 03:51:00,
2013-05-07 22:56:00,57.9,55.6,29.87,NNW,336,0.0,0.0,92,0.00,,---,0.01,VWS V14.01,2013-05-08 03:56:00,
2013-05-07 23:01:00,57.7,55.7,29.87,NNW,335,0.0,0.0,93,0.00,,---,0.01,VWS V14.01,2013-05-08 04:01:00,
2013-05-07 23:06:00,57.6,55.3,29.86,NNW,336,0.0,0.0,92,0.00,,---,0.01,VWS V14.01,2013-05-08 04:06:00,
2013-05-07 23:11:00,57.5,55.5,29.86,NNW,335,0.0,0.0,93,0.00,,---,0.01,VWS V14.01,2013-05-08 04:11:00,
2013-05-07 23:16:00,57.3,55.3,29.86,NNW,335,0.0,0.0,93,0.00,,---,0.01,VWS V14.01,2013-05-08 04:16:00,
2013-05-07 23:21:00,57.1,55.1,29.86,NNW,335,0.0,0.0,93,0.00,,---,0.01,VWS V14.01,2013-05-08 04:21:00,
2013-05-07 23:26:00,56.9,54.9,29.86,NNW,336,0.0,0.0,93,0.00,,---,0.01,VWS V14.01,2013-05-08 04:26:00,
2013-05-07 23:31:00,56.8,54.8,29.86,NNW,336,0.0,0.0,93,0.00,,---,0.01,VWS V14.01,2013-05-08 04:31:00,
2013-05-07 23:36:00,56.8,54.8,29.86,NNW,336,0.0,0.0,93,0.00,,---,0.01,VWS V14.01,2013-05-08 04:36:00,
2013-05-07 23:41:00,56.7,54.7,29.86,NNW,336,0.0,0.0,93,0.00,,---,0.01,VWS V14.01,2013-05-08 04:41:00,
2013-05-07 23:46:00,56.7,54.7,29.86,NNW,335,0.0,0.0,93,0.00,,---,0.01,VWS V14.01,2013-05-08 04:46:00,
2013-05-07 23:51:00,56.7,55.0,29.86,NNW,335,0.0,0.0,94,0.00,,---,0.01,VWS V14.01,2013-05-08 04:51:00,
2013-05-07 23:56:00,56.8,55.1,29.86,NNW,335,0.0,0.0,94,0.00,,---,0.01,VWS V14.01,2013-05-08 04:56:00,